AirNav   Everest Fuels
 
 1551 users online  

KNRA Coupeville Naval Outlying Field
Coupeville, Washington, USA

GOING TO COUPEVILLE?


FAA INFORMATION EFFECTIVE 18 JUNE 2020

Location

FAA Identifier: NRA
Lat/Long: 48-11-00.0000N 122-38-00.0000W
48-11.000000N 122-38.000000W
48.1833333,-122.6333333
(estimated)
Elevation: 199 ft. / 61 m (estimated)
Variation: 19E (2000)
From city: 3 miles SE of COUPEVILLE, WA
Time zone: UTC -7 (UTC -8 during Standard Time)
Zip code: 98239

Airport Operations

Airport use: Private use, STRICTLY MILITARY USE ONLY.
Activation date: 02/2001
Control tower: no
ARTCC: SEATTLE CENTER
FSS: SEATTLE FLIGHT SERVICE STATION
Attendance: MON-FRI 0800-0001
1700-0830Z++APR-OCT ATND OTHER TIMES BY NOTAM.
Wind indicator: yes
Segmented circle: no
Lights: PRIOR REQ. MIRL RY 14/32 OPRS AS RQRD FOR MIL OPNL REQUIREMENTS.

Airport Communications

WX AWOS-3 at OKH (4 nm N): 132.775 (360-675-8431)
WX AWOS-3P at 0S9 (11 nm SW): 119.025 (360-379-1199)
WX AWOS-3PT at AWO (19 nm E): 135.625 (360-435-8045)
WX AWOS-3 at BVS (19 nm NE): 121.125 (360-757-7767)

Nearby radio navigation aids

VOR radial/distance  VOR name  Freq  Var
CVVr116/5.2PENN COVE VOR/DME117.2019E
PAEr298/21.3PAINE VOR/DME110.6020E

 
NDB name  Hdg/Dist  Freq  Var  ID
SKAGIT/BAY VIEW191/19.124016EBVS -... ...- ...
FRIDAY HARBOR125/25.128417EFHR ..-. .... .-.
EDIZ HOOK068/30.933817ENOW -. --- .--

Airport Services

Runway Information

Runway 14/32

Dimensions: 5400 x 200 ft. / 1646 x 61 m
Surface: concrete
Runway edge lights: medium intensity
RUNWAY 14  RUNWAY 32
Traffic pattern: rightright

Airport Ownership and Management from official FAA records

Ownership: U.S. Navy
Owner: US NAVY
COMMANDING OFFICER ATTN: CODE AOT, 3730 NORTH CHARLES
OAK HARBOR, WA 98278
Phone 360-257-2681/2
Manager: US NAVY
COMMANDING OFFICER ATTN: CODE AOT, 3730 NORTH CHARLES
OAK HARBOR, WA 98278
Phone 360-257-2681/2

Additional Remarks

FULL STOP LNDG NOT AUZD UNLESS EMERGENCY.
WHIDBEY ISLAND NAS (AULT FLD) ATIS AVBL ON FREQ 134.15/280.3.
FOR CD CTC WHIDBEY APCH AT 360-257-3310.
ASOS C360-678-2934.

Instrument Procedures

There are no published instrument procedures at KNRA.

Some nearby airports with instrument procedures:

KOKH - AJ Eisenberg Airport (4 nm N)
KNUW - Whidbey Island Naval Air Station (Ault Field) (10 nm N)
0S9 - Jefferson County International Airport (11 nm SW)
KAWO - Arlington Municipal Airport (19 nm E)
KBVS - Skagit Regional Airport (19 nm NE)
 
Loc | Ops | Rwys | IFR | FBO | Links
Com | Nav | Svcs | Stats | Notes
Area around KNRA (Coupeville Naval Outlying Field)
 
Road maps at: MapQuest Bing Google
 
Aerial photo
WARNING: Photo may not be current or correct
Aerial photo of KNRA (Coupeville Naval Outlying Field)
Taken in June 2006

Do you have a better or more recent aerial photo of Coupeville Naval Outlying Field that you would like to share? If so, please send us your photo.

 
Sectional chart

 
Airport distance calculator
Flying to Coupeville Naval Outlying Field? Find the distance to fly.

From to KNRA

Sunrise and sunset
Times for 14-Jul-2020
 Local
(UTC-7)
 Zulu
(UTC)
Morning civil twilight04:4811:48
Sunrise05:2712:27
Sunset21:0604:06
Evening civil twilight21:4504:45

Current date and time
Zulu (UTC)  14-Jul-2020 18:55:25
Local (UTC-7)  14-Jul-2020 11:55:25
 
METAR
KNUW 
10nm N 
141756Z 27006KT 10SM FEW025 BKN250 16/11 A3022 RMK AO2 SLP234 T01610106 10161 20094 53007
K0S9 
11nm SW 
141835Z AUTO 35006G12KT 10SM CLR 20/11 A3018 RMK AO2
KAWO 
19nm E 
141756Z AUTO 15003KT 10SM CLR 19/11 A3018 RMK AO2 SLP222 T01940111 10200 20072 50000
KBVS 
19nm NE 
141835Z AUTO 25004KT 9SM CLR 24/12 A3018 RMK A01
TAF
KNUW 
10nm N 
1415/1515 VRB05KT 9999 FEW015 SCT250 QNH3015INS FM141900 27008KT 9999 FEW030 BKN250 QNH3012INS FM150400 VRB06KT 9999 FEW035 SCT250 QNH3011INS T18/1423Z T10/1512Z COR 1655 FS30004
NOTAMs
Click for the latest NOTAMs
NOTAMs are issued by the DoD/FAA and will open in a separate window not controlled by AirNav.

 

 
 

Would you like to see your business listed on this page?

 If your business provides an interesting product or service to pilots, flight crews, aircraft, or users of the Coupeville Naval Outlying Field, you should consider listing it here.  To start the listing process, click on the button below
 
Add a business
 

Other Pages about Coupeville Naval Outlying Field

Update a link
 
Copyright © AirNav, LLC. All rights reserved. Privacy Policy  Contact